Location: Mesa Village
(35.0898°N, 106.5431°W)
Time: 22:48:24
(UTC+00:00)

Daily predictions for brighter satellites

Satellite Brightness Start Highest point End
(mag) Time Altitude Azimuth Time Altitude Azimuth Time Altitude Azimuth
Delta 142 4.5 12:03:01 19° SW 12:05:20 33° S 12:09:01 10° ESE
IDEFIX/ARIANE 42P 3.9 12:01:43 10° NNW 12:05:21 19° WNW 12:05:42 19° WNW
SL-16 R/B 4.3 12:00:38 10° SSE 12:05:24 29° ESE 12:10:11 10° NE
Meteor 1-21 4.3 12:00:21 10° SSW 12:05:44 50° WNW 12:11:11 10° N
Cosmos 1844 Rocket 3.3 12:05:22 10° NW 12:10:14 32° WSW 12:15:05 10° SSW
BREEZE-M DEB (TANK) 3.4 12:02:43 10° WSW 12:11:26 84° NNW 12:14:39 10° NE
GPS 2-05 Rocket1 2.3 12:11:19 29° W 12:12:30 65° SSW 12:15:15 10° ESE
Cosmos 2333 Rocket 3.0 12:09:30 16° WSW 12:13:00 30° WNW 12:17:56 10° N
Cosmos 2278 Rocket 2.6 12:17:27 10° NNW 12:23:08 69° ENE 12:28:45 10° SSE
Cosmos 1844 4.5 12:20:51 10° NW 12:25:50 31° WSW 12:30:47 10° SSW
COBE Rocket 4.0 12:21:22 10° SSE 12:26:16 86° ENE 12:31:22 10° N
Meteor 1-31 Rocket 3.9 12:23:43 10° NNW 12:26:45 23° WNW 12:29:46 10° SW
Cosmos 1606 Rocket 4.0 12:24:15 10° N 12:28:33 67° E 12:32:50 10° SSE
Meteor 1-4 Rocket 2.4 12:27:48 10° SSW 12:31:21 72° W 12:34:53 10° N
FENGYUN 3A 4.1 12:25:58 10° NNE 12:31:24 69° ESE 12:36:48 10° S
NOSS 3-2 (A) 4.2 12:26:29 10° NW 12:34:20 79° WSW 12:42:53 10° SSE
CZ-2C R/B 3.6 12:30:42 10° NNW 12:34:47 24° WNW 12:38:50 10° WSW
Cosmos 2154 Rocket 4.0 12:29:17 10° SSW 12:35:26 70° W 12:41:38 10° N
Cosmos 1140 Rocket 3.4 12:31:01 10° SSW 12:36:12 72° WNW 12:41:23 10° NNE
Cosmos 1470 3.2 12:33:33 10° NNW 12:37:13 39° W 12:40:51 10° SSW
Cosmos 1707 3.5 12:39:00 10° SW 12:42:30 32° W 12:46:02 10° NNW
COSMO-SKYMED 1 2.6 12:40:08 10° S 12:44:24 60° W 12:48:42 10° NNW
CZ-4B R/B 4.4 12:42:24 10° NNW 12:44:55 16° WNW 12:47:21 10° WSW
Cosmos 1484 Rocket 3.4 12:41:43 10° N 12:45:08 33° WNW 12:48:34 10° SW
PAYLOAD B 4.3 12:45:08 10° N 12:50:35 57° WNW 12:55:58 10° SSW
Cosmos 2341 Rocket 4.1 12:47:23 10° S 12:53:41 86° W 12:59:57 10° N
NOSS 3-2 (C) 4.2 12:47:14 10° NNW 12:55:08 84° WSW 13:03:43 10° SSE
